User: anonymous   Login
Location: Oshawa
(43.9000°N, 78.8670°W)
Time: 15:57:47
(UTC-05:00)
Language:

Cosmos 1805 Rocket - Orbit

View from above orbital plane
View from above orbital plane
View from above satellite
View from above satellite

Ground track
Ground track

The orbit data is extracted from the following two-line orbital elements,

1 17192U 86097B   16044.94932036 +.00000311 +00000-0 +35045-4 0  9997
2 17192 082.5085 355.6526 0015376 274.7308 147.6806 14.83410240555054
Epoch (UTC): 13 February 2016 22:47:01
Eccentricity: 0.0015376
inclination: 82.5085°
perigee height: 608 km
apogee height: 629 km
right ascension of ascending node: 355.6526°
argument of perigee: 274.7308°
revolutions per day: 14.83410240
mean anomaly at epoch: 147.6806°
orbit number at epoch: 55505

The dashed part of the orbit path shows where the satellite is in the earth's shadow,  

DLR